DELTA 1 DEB, 7168

Orbit data source: Space-Track

DELTA 1 DEB, 7168 is space debris in SSO originally from a launch on Tue, 06 Nov 1973 UTC launched from the Air Force Western Test Range (AFWTR). Debris objects in space refer to the collection of defunct objects orbiting the Earth. Examples of debris include non-operational satellites, rocket bodies, and fragments generated from explosions, collisions, or faulty payload assembly.

Loading next visibility...
Identifier
7168, 1973-086EG
Orbit
SSO
Country
Flag of USUS
Related business
Manufacturer
Unknown
Mission
Spacecraft
Bus & Motor
Unknown
Mass
Unknown
Launch date (UTC)
1973-11-06 (52 years ago)
Launch vehicle
Unknown
Launch site
Air Force Western Test Range (AFWTR)
Object type
Payload
Rocket body
Debris
Shape & HBR
Unknown shape, 0.1 m
Radar Cross Section
Small (<0.1 m²)

Expand to show TLE details & history
Last TLE update: 3 days ago

TLE from 3 days ago
0 DELTA 1 DEB
1  7168U 73086EG  25290.91802409  .00000231  00000-0  28021-2 0  9998
2  7168 102.2871  69.2647 0182406 191.7378 296.6858 12.11149933509143
Epoch: 2025-10-17T22:01Z
TLE epoch observation values (Epoch: 2025-10-17T22:01:57.281Z)
Latitude
51.82044°
Longitude
-91.88082°
Altitude
1,575.974 km
Speed
7.113 km/s
True Right ascension
17h 41m 03s
True Declination
51° 40' 14"
Sunlit
Object was in daylight at epoch
Visualization orbit readout
Latitude
Unknown
Longitude
Unknown
Altitude
Unknown
Speed
Unknown
Apparent Right ascension
Unknown
Apparent Declination
Unknown
Sunlit
N/A
Visualization observer readout
Local Sidereal Time
10:09:45
Azimuth
Unknown
Elevation
Unknown
Doppler factor
Unknown
Orbital elements
Apogee altitude
1,775.006 km
Perigee altitude
1,482.897 km
Semi-major axis
8,007.088 km
Eccentricity
0.01824
Inclination
102.2871°
RAAN
69.2647°
Arg. of periapsis
191.7378°
True anomaly
294.79925°
Mean anomaly
296.6858°
Eccentric anomaly
295.74443°
Mean motion
3.02922 °/min
Orbital period
118.84 mins
BSTAR
0.0028021
Loading maneuver chart data...
Computing Atmospheric mass density...

Documentation

Showing up to 5 results
|